Time,TemperatureF,DewpointF,PressureIn,WindDirection,WindDirectionDegrees,WindSpeedMPH,WindSpeedGustMPH,Humidity,HourlyPrecipIn,Conditions,Clouds,dailyrainin,SoftwareType,DateUTC
2013-08-18 00:01:00,66.6,24.3,29.56,ENE,63,0.0,0.0,20,0.00,,SKC,0.00,VWS V14.01,2013-08-18 07:01:00,
2013-08-18 00:06:00,65.7,23.5,29.56,ENE,58,0.0,0.0,20,0.00,,SKC,0.00,VWS V14.01,2013-08-18 07:06:00,
2013-08-18 00:11:00,64.9,22.9,29.56,ENE,58,0.0,0.0,20,0.00,,SKC,0.00,VWS V14.01,2013-08-18 07:11:00,
2013-08-18 00:16:00,64.2,25.7,29.56,ENE,58,0.0,0.0,23,0.00,,SKC,0.00,VWS V14.01,2013-08-18 07:16:00,
2013-08-18 00:21:00,64.8,22.8,29.56,ESE,106,4.9,5.4,20,0.00,,SKC,0.00,VWS V14.01,2013-08-18 07:21:00,
2013-08-18 00:26:00,66.6,24.3,29.56,ESE,108,4.0,6.3,20,0.00,,SKC,0.00,VWS V14.01,2013-08-18 07:26:00,
2013-08-18 00:31:00,67.5,25.0,29.56,SE,127,4.9,4.9,20,0.00,,SKC,0.00,VWS V14.01,2013-08-18 07:31:00,
2013-08-18 00:36:00,67.3,24.9,29.56,SE,130,3.6,5.4,20,0.00,,SKC,0.00,VWS V14.01,2013-08-18 07:36:00,
2013-08-18 00:41:00,67.1,24.7,29.56,SE,134,3.1,4.0,20,0.00,,SKC,0.00,VWS V14.01,2013-08-18 07:41:00,
2013-08-18 00:46:00,66.6,24.3,29.56,ESE,114,4.0,4.0,20,0.00,,SKC,0.00,VWS V14.01,2013-08-18 07:46:00,
2013-08-18 00:51:00,66.0,23.8,29.56,SE,139,3.6,3.6,20,0.00,,SKC,0.00,VWS V14.01,2013-08-18 07:51:00,
2013-08-18 00:56:00,66.0,23.8,29.56,SSE,156,2.2,3.6,20,0.00,,SKC,0.00,VWS V14.01,2013-08-18 07:56:00,
2013-08-18 01:01:00,65.7,23.5,29.56,SE,146,2.7,2.7,20,0.00,,SKC,0.00,VWS V14.01,2013-08-18 08:01:00,
2013-08-18 01:06:00,65.5,23.4,29.56,SE,140,5.4,6.3,20,0.00,,SKC,0.00,VWS V14.01,2013-08-18 08:06:00,
2013-08-18 01:11:00,66.0,23.8,29.56,SE,145,3.1,3.1,20,0.00,,SKC,0.00,VWS V14.01,2013-08-18 08:11:00,
2013-08-18 01:16:00,66.2,24.0,29.56,SE,132,3.6,3.6,20,0.00,,SKC,0.00,VWS V14.01,2013-08-18 08:16:00,
2013-08-18 01:21:00,66.2,24.0,29.56,SE,130,4.9,5.4,20,0.00,,SKC,0.00,VWS V14.01,2013-08-18 08:21:00,
2013-08-18 01:26:00,66.6,24.3,29.56,SSE,151,3.6,3.6,20,0.00,,SKC,0.00,VWS V14.01,2013-08-18 08:26:00,
2013-08-18 01:31:00,66.6,24.3,29.56,ESE,122,4.0,4.0,20,0.00,,SKC,0.00,VWS V14.01,2013-08-18 08:31:00,
2013-08-18 01:36:00,66.2,24.0,29.56,SSE,154,2.7,4.0,20,0.00,,SKC,0.00,VWS V14.01,2013-08-18 08:36:00,
2013-08-18 01:41:00,66.4,24.1,29.56,SSE,160,2.2,2.7,20,0.00,,SKC,0.00,VWS V14.01,2013-08-18 08:41:00,
2013-08-18 01:46:00,65.8,23.7,29.56,SSE,147,0.0,0.0,20,0.00,,SKC,0.00,VWS V14.01,2013-08-18 08:46:00,
2013-08-18 01:51:00,65.5,23.4,29.56,SSE,159,0.0,0.0,20,0.00,,SKC,0.00,VWS V14.01,2013-08-18 08:51:00,
2013-08-18 01:56:00,64.8,22.8,29.56,WNW,292,0.0,0.0,20,0.00,,SKC,0.00,VWS V14.01,2013-08-18 08:56:00,
2013-08-18 02:01:00,63.3,24.9,29.56,WNW,292,0.0,0.0,23,0.00,,SKC,0.00,VWS V14.01,2013-08-18 09:01:00,
2013-08-18 02:06:00,62.2,25.0,29.56,WNW,292,0.0,0.0,24,0.00,,SKC,0.00,VWS V14.01,2013-08-18 09:06:00,
2013-08-18 02:11:00,61.2,24.1,29.56,WNW,292,0.0,0.0,24,0.00,,SKC,0.00,VWS V14.01,2013-08-18 09:11:00,
2013-08-18 02:16:00,60.4,24.5,29.56,WNW,292,0.0,0.0,25,0.00,,SKC,0.00,VWS V14.01,2013-08-18 09:16:00,
2013-08-18 02:20:00,60.3,24.3,29.56,WNW,292,0.0,0.0,25,0.00,,SKC,0.00,VWS V14.01,2013-08-18 09:20:00,
2013-08-18 02:25:00,59.9,24.0,29.56,WNW,292,0.0,0.0,25,0.00,,SKC,0.00,VWS V14.01,2013-08-18 09:25:00,
2013-08-18 02:30:00,59.5,23.7,29.56,WNW,292,0.0,0.0,25,0.00,,SKC,0.00,VWS V14.01,2013-08-18 09:30:00,
2013-08-18 02:35:00,60.1,24.2,29.56,ESE,115,2.7,3.6,25,0.00,,SKC,0.00,VWS V14.01,2013-08-18 09:35:00,
2013-08-18 02:40:00,61.0,24.0,29.56,SE,145,2.7,2.7,24,0.00,,SKC,0.00,VWS V14.01,2013-08-18 09:40:00,
2013-08-18 02:45:00,61.7,24.6,29.56,SE,138,2.7,3.6,24,0.00,,SKC,0.00,VWS V14.01,2013-08-18 09:45:00,
2013-08-18 02:50:00,61.7,24.6,29.56,SSE,148,0.0,0.0,24,0.00,,SKC,0.00,VWS V14.01,2013-08-18 09:50:00,
2013-08-18 02:55:00,60.8,24.8,29.56,SSW,204,0.0,0.0,25,0.00,,SKC,0.00,VWS V14.01,2013-08-18 09:55:00,
2013-08-18 03:00:00,60.1,24.2,29.56,SSW,204,0.0,0.0,25,0.00,,SKC,0.00,VWS V14.01,2013-08-18 10:00:00,
2013-08-18 03:05:00,59.2,24.3,29.56,SSW,204,0.0,0.0,26,0.00,,SKC,0.00,VWS V14.01,2013-08-18 10:05:00,
2013-08-18 03:10:00,58.3,25.3,29.56,SSW,204,0.0,0.0,28,0.00,,SKC,0.00,VWS V14.01,2013-08-18 10:10:00,
2013-08-18 03:15:00,57.9,26.7,29.56,SSW,204,0.0,0.0,30,0.00,,SKC,0.00,VWS V14.01,2013-08-18 10:15:00,
2013-08-18 03:20:00,57.4,27.0,29.56,SSW,204,0.0,0.0,31,0.00,,SKC,0.00,VWS V14.01,2013-08-18 10:20:00,
2013-08-18 03:25:00,57.0,29.0,29.56,SSW,204,0.0,0.0,34,0.00,,SKC,0.00,VWS V14.01,2013-08-18 10:25:00,
2013-08-18 03:30:00,56.7,29.3,29.56,SSW,204,0.0,0.0,35,0.00,,SKC,0.00,VWS V14.01,2013-08-18 10:30:00,
2013-08-18 03:35:00,57.2,27.6,29.56,ENE,78,0.0,0.0,32,0.00,,SKC,0.00,VWS V14.01,2013-08-18 10:35:00,
2013-08-18 03:40:00,58.1,25.2,29.56,ESE,115,0.0,0.0,28,0.00,,SKC,0.00,VWS V14.01,2013-08-18 10:40:00,
2013-08-18 03:45:00,59.2,24.3,29.56,ESE,103,0.0,0.0,26,0.00,,SKC,0.00,VWS V14.01,2013-08-18 10:45:00,
2013-08-18 03:50:00,60.1,25.1,29.56,SE,138,4.0,4.0,26,0.00,,SKC,0.00,VWS V14.01,2013-08-18 10:50:00,
2013-08-18 03:55:00,61.0,24.9,29.56,SE,130,3.1,3.1,25,0.00,,SKC,0.00,VWS V14.01,2013-08-18 10:55:00,
2013-08-18 04:00:00,61.5,24.4,29.56,SE,128,6.7,6.7,24,0.00,,SKC,0.00,VWS V14.01,2013-08-18 11:00:00,
2013-08-18 04:05:00,61.9,24.7,29.56,SE,130,4.0,4.0,24,0.00,,SKC,0.00,VWS V14.01,2013-08-18 11:05:00,
2013-08-18 04:10:00,61.7,24.6,29.56,ESE,116,4.0,5.8,24,0.00,,SKC,0.00,VWS V14.01,2013-08-18 11:10:00,
2013-08-18 04:15:00,61.5,24.4,29.56,ESE,119,2.2,2.7,24,0.00,,SKC,0.00,VWS V14.01,2013-08-18 11:15:00,
2013-08-18 04:20:00,61.2,24.1,29.56,ESE,115,0.0,0.0,24,0.00,,SKC,0.00,VWS V14.01,2013-08-18 11:20:00,
2013-08-18 04:25:00,60.4,24.5,29.56,NE,42,0.0,0.0,25,0.00,,SKC,0.00,VWS V14.01,2013-08-18 11:25:00,
2013-08-18 04:30:00,59.5,23.7,29.56,NE,50,0.0,0.0,25,0.00,,SKC,0.00,VWS V14.01,2013-08-18 11:30:00,
2013-08-18 04:35:00,58.8,24.0,29.56,NE,50,0.0,0.0,26,0.00,,SKC,0.00,VWS V14.01,2013-08-18 11:35:00,
2013-08-18 04:40:00,58.1,23.4,29.56,NE,50,0.0,0.0,26,0.00,,SKC,0.00,VWS V14.01,2013-08-18 11:40:00,
2013-08-18 04:45:00,57.0,23.4,29.56,NE,50,0.0,0.0,27,0.00,,SKC,0.00,VWS V14.01,2013-08-18 11:45:00,
2013-08-18 04:50:00,56.3,26.1,29.56,NE,50,0.0,0.0,31,0.00,,SKC,0.00,VWS V14.01,2013-08-18 11:50:00,
2013-08-18 04:55:00,55.8,28.5,29.56,NE,50,0.0,0.0,35,0.00,,SKC,0.00,VWS V14.01,2013-08-18 11:55:00,
2013-08-18 05:00:00,55.8,29.2,29.56,NE,50,0.0,0.0,36,0.00,,SKC,0.00,VWS V14.01,2013-08-18 12:00:00,
2013-08-18 05:05:00,55.4,28.2,29.56,NE,50,0.0,0.0,35,0.00,,SKC,0.00,VWS V14.01,2013-08-18 12:05:00,
2013-08-18 05:10:00,55.0,28.6,29.56,NE,50,0.0,0.0,36,0.00,,SKC,0.00,VWS V14.01,2013-08-18 12:10:00,
2013-08-18 05:15:00,54.5,28.1,29.56,NE,50,0.0,0.0,36,0.00,,SKC,0.00,VWS V14.01,2013-08-18 12:15:00,
2013-08-18 05:20:00,54.0,27.6,29.56,NE,50,0.0,0.0,36,0.00,,SKC,0.00,VWS V14.01,2013-08-18 12:20:00,
2013-08-18 05:25:00,53.8,28.8,29.56,NE,50,0.0,0.0,38,0.00,,SKC,0.00,VWS V14.01,2013-08-18 12:25:00,
2013-08-18 05:30:00,53.8,29.4,29.56,NE,50,0.0,0.0,39,0.00,,SKC,0.00,VWS V14.01,2013-08-18 12:30:00,
2013-08-18 05:35:00,53.8,29.4,29.56,NE,50,0.0,0.0,39,0.00,,SKC,0.00,VWS V14.01,2013-08-18 12:35:00,
2013-08-18 05:40:00,53.6,29.3,29.56,NE,50,0.0,0.0,39,0.00,,SKC,0.00,VWS V14.01,2013-08-18 12:40:00,
2013-08-18 05:45:00,53.2,28.9,29.56,NE,50,0.0,0.0,39,0.00,,SKC,0.00,VWS V14.01,2013-08-18 12:45:00,
2013-08-18 05:50:00,53.1,29.4,29.56,NE,50,0.0,0.0,40,0.00,,SKC,0.00,VWS V14.01,2013-08-18 12:50:00,
2013-08-18 05:55:00,52.9,29.2,29.56,NE,50,0.0,0.0,40,0.00,,SKC,0.00,VWS V14.01,2013-08-18 12:55:00,
2013-08-18 06:00:00,52.7,29.1,29.56,NE,50,0.0,0.0,40,0.00,,SKC,0.00,VWS V14.01,2013-08-18 13:00:00,
2013-08-18 06:05:00,52.5,28.9,29.56,NE,50,0.0,0.0,40,0.00,,SKC,0.00,VWS V14.01,2013-08-18 13:05:00,
2013-08-18 06:10:00,52.5,28.9,29.56,NE,50,0.0,0.0,40,0.00,,SKC,0.00,VWS V14.01,2013-08-18 13:10:00,
2013-08-18 06:15:00,52.7,29.1,29.56,NE,50,0.0,0.0,40,0.00,,SKC,0.00,VWS V14.01,2013-08-18 13:15:00,
2013-08-18 06:20:00,52.7,28.5,29.56,WNW,302,0.0,0.0,39,0.00,,SKC,0.00,VWS V14.01,2013-08-18 13:20:00,
2013-08-18 06:25:00,52.5,28.9,29.59,WNW,302,0.0,0.0,40,0.00,,SKC,0.00,VWS V14.01,2013-08-18 13:25:00,
2013-08-18 06:30:00,52.5,29.5,29.59,WNW,302,0.0,0.0,41,0.00,,SKC,0.00,VWS V14.01,2013-08-18 13:30:00,
2013-08-18 06:35:00,52.5,30.1,29.59,WNW,302,0.0,0.0,42,0.00,,SKC,0.00,VWS V14.01,2013-08-18 13:35:00,
2013-08-18 06:40:00,52.7,30.9,29.59,WNW,302,0.0,0.0,43,0.00,,SKC,0.00,VWS V14.01,2013-08-18 13:40:00,
2013-08-18 06:45:00,53.2,31.3,29.59,WNW,302,0.0,0.0,43,0.00,,SKC,0.00,VWS V14.01,2013-08-18 13:45:00,
2013-08-18 06:50:00,53.8,31.2,29.59,WNW,302,0.0,0.0,42,0.00,,SKC,0.00,VWS V14.01,2013-08-18 13:50:00,
2013-08-18 06:55:00,54.7,31.5,29.59,WNW,302,0.0,0.0,41,0.00,,SKC,0.00,VWS V14.01,2013-08-18 13:55:00,
2013-08-18 07:00:00,56.1,31.5,29.59,WNW,302,0.0,0.0,39,0.00,,SKC,0.00,VWS V14.01,2013-08-18 14:00:00,
2013-08-18 07:05:00,57.4,30.7,29.59,WNW,302,0.0,0.0,36,0.00,,SKC,0.00,VWS V14.01,2013-08-18 14:05:00,
2013-08-18 07:10:00,58.3,30.8,29.59,WNW,302,0.0,0.0,35,0.00,,SKC,0.00,VWS V14.01,2013-08-18 14:10:00,
2013-08-18 07:15:00,60.1,31.6,29.59,WNW,302,0.0,0.0,34,0.00,,SKC,0.00,VWS V14.01,2013-08-18 14:15:00,
2013-08-18 07:20:00,61.9,30.9,29.59,WNW,302,0.0,0.0,31,0.00,,SKC,0.00,VWS V14.01,2013-08-18 14:20:00,
2013-08-18 07:25:00,63.5,30.7,29.59,WNW,302,0.0,0.0,29,0.00,,SKC,0.00,VWS V14.01,2013-08-18 14:25:00,
2013-08-18 07:30:00,65.1,28.5,29.59,WNW,302,0.0,0.0,25,0.00,,SKC,0.00,VWS V14.01,2013-08-18 14:30:00,
2013-08-18 07:35:00,66.4,29.5,29.59,WNW,302,0.0,0.0,25,0.00,,SKC,0.00,VWS V14.01,2013-08-18 14:35:00,
2013-08-18 07:40:00,67.6,28.5,29.59,WNW,302,0.0,0.0,23,0.00,,SKC,0.00,VWS V14.01,2013-08-18 14:40:00,
2013-08-18 07:45:00,67.8,28.7,29.59,WNW,302,0.0,0.0,23,0.00,,SKC,0.00,VWS V14.01,2013-08-18 14:45:00,
2013-08-18 07:50:00,68.7,29.5,29.59,WNW,302,0.0,0.0,23,0.00,,SKC,0.00,VWS V14.01,2013-08-18 14:50:00,
2013-08-18 07:55:00,69.4,30.1,29.59,WNW,302,0.0,0.0,23,0.00,,SKC,0.00,VWS V14.01,2013-08-18 14:55:00,
2013-08-18 08:00:00,70.2,30.7,29.59,WNW,302,0.0,0.0,23,0.00,,SKC,0.00,VWS V14.01,2013-08-18 15:00:00,
2013-08-18 08:05:00,70.7,30.0,29.59,WNW,302,0.0,0.0,22,0.00,,SKC,0.00,VWS V14.01,2013-08-18 15:05:00,
2013-08-18 08:10:00,71.4,30.6,29.59,WNW,302,0.0,0.0,22,0.00,,SKC,0.00,VWS V14.01,2013-08-18 15:10:00,
2013-08-18 08:15:00,71.4,30.6,29.59,WNW,302,0.0,0.0,22,0.00,,SKC,0.00,VWS V14.01,2013-08-18 15:15:00,
2013-08-18 08:20:00,72.0,31.1,29.59,WNW,302,0.0,0.0,22,0.00,,SKC,0.00,VWS V14.01,2013-08-18 15:20:00,
2013-08-18 08:25:00,72.5,30.4,29.59,WNW,302,0.0,0.0,21,0.00,,SKC,0.00,VWS V14.01,2013-08-18 15:25:00,
2013-08-18 08:30:00,72.7,30.5,29.59,WNW,302,0.0,0.0,21,0.00,,SKC,0.00,VWS V14.01,2013-08-18 15:30:00,
2013-08-18 08:35:00,72.9,30.7,29.59,WNW,302,0.0,0.0,21,0.00,,SKC,0.00,VWS V14.01,2013-08-18 15:35:00,
2013-08-18 08:40:00,73.6,31.3,29.62,WNW,302,0.0,0.0,21,0.00,,SKC,0.00,VWS V14.01,2013-08-18 15:40:00,
2013-08-18 08:45:00,74.5,28.2,29.62,WNW,302,0.0,0.0,18,0.00,,SKC,0.00,VWS V14.01,2013-08-18 15:45:00,
2013-08-18 08:50:00,75.7,31.9,29.62,WNW,302,0.0,0.0,20,0.00,,SKC,0.00,VWS V14.01,2013-08-18 15:50:00,
2013-08-18 08:55:00,76.1,29.6,29.59,WNW,302,0.0,0.0,18,0.00,,SKC,0.00,VWS V14.01,2013-08-18 15:55:00,
2013-08-18 09:00:00,76.6,30.0,29.59,WNW,302,0.0,0.0,18,0.00,,SKC,0.00,VWS V14.01,2013-08-18 16:00:00,
2013-08-18 09:05:00,77.0,30.3,29.59,WNW,302,0.0,0.0,18,0.00,,SKC,0.00,VWS V14.01,2013-08-18 16:05:00,
2013-08-18 09:10:00,77.2,30.4,29.59,WNW,302,0.0,0.0,18,0.00,,SKC,0.00,VWS V14.01,2013-08-18 16:10:00,
2013-08-18 09:15:00,77.5,30.7,29.59,WNW,301,3.1,4.0,18,0.00,,SKC,0.00,VWS V14.01,2013-08-18 16:15:00,
2013-08-18 09:20:00,77.5,30.7,29.59,NNW,339,2.2,2.7,18,0.00,,SKC,0.00,VWS V14.01,2013-08-18 16:20:00,
2013-08-18 09:25:00,78.1,31.2,29.62,NNW,338,0.0,0.0,18,0.00,,SKC,0.00,VWS V14.01,2013-08-18 16:25:00,
2013-08-18 09:30:00,79.0,30.5,29.62,NW,304,0.0,0.0,17,0.00,,SKC,0.00,VWS V14.01,2013-08-18 16:30:00,
2013-08-18 09:35:00,79.0,30.5,29.62,NW,304,0.0,0.0,17,0.00,,SKC,0.00,VWS V14.01,2013-08-18 16:35:00,
2013-08-18 09:40:00,79.3,30.8,29.62,West,274,4.0,5.4,17,0.00,,SKC,0.00,VWS V14.01,2013-08-18 16:40:00,
2013-08-18 09:45:00,78.6,31.6,29.62,West,274,0.0,0.0,18,0.00,,SKC,0.00,VWS V14.01,2013-08-18 16:45:00,
2013-08-18 09:50:00,78.8,30.4,29.62,NW,312,0.0,0.0,17,0.00,,SKC,0.00,VWS V14.01,2013-08-18 16:50:00,
2013-08-18 09:55:00,78.8,30.4,29.62,SW,217,0.0,0.0,17,0.00,,SKC,0.00,VWS V14.01,2013-08-18 16:55:00,
2013-08-18 10:00:00,78.4,31.5,29.62,West,265,0.0,0.0,18,0.00,,SKC,0.00,VWS V14.01,2013-08-18 17:00:00,
2013-08-18 10:05:00,79.2,30.6,29.62,NNW,336,0.0,0.0,17,0.00,,SKC,0.00,VWS V14.01,2013-08-18 17:05:00,
2013-08-18 10:10:00,79.5,30.9,29.62,WNW,302,0.0,0.0,17,0.00,,SKC,0.00,VWS V14.01,2013-08-18 17:10:00,
2013-08-18 10:15:00,79.5,30.9,29.62,West,263,0.0,0.0,17,0.00,,SKC,0.00,VWS V14.01,2013-08-18 17:15:00,
2013-08-18 10:20:00,79.9,31.2,29.62,NW,325,4.0,5.4,17,0.00,,SKC,0.00,VWS V14.01,2013-08-18 17:20:00,
2013-08-18 10:25:00,80.2,31.5,29.62,NNW,329,0.0,0.0,17,0.00,,SKC,0.00,VWS V14.01,2013-08-18 17:25:00,
2013-08-18 10:30:00,81.3,32.4,29.62,North,353,3.6,4.9,17,0.00,,SKC,0.00,VWS V14.01,2013-08-18 17:30:00,
2013-08-18 10:35:00,81.1,27.5,29.62,North,0,6.3,6.3,14,0.00,,SKC,0.00,VWS V14.01,2013-08-18 17:35:00,
2013-08-18 10:40:00,81.5,27.8,29.62,North,2,2.7,2.7,14,0.00,,SKC,0.00,VWS V14.01,2013-08-18 17:40:00,
2013-08-18 10:45:00,81.7,27.9,29.62,NE,44,3.1,3.6,14,0.00,,SKC,0.00,VWS V14.01,2013-08-18 17:45:00,
2013-08-18 10:50:00,81.7,27.9,29.62,North,0,3.1,3.1,14,0.00,,SKC,0.00,VWS V14.01,2013-08-18 17:50:00,
2013-08-18 10:55:00,82.0,28.2,29.62,North,10,3.1,3.6,14,0.00,,SKC,0.00,VWS V14.01,2013-08-18 17:55:00,
2013-08-18 11:00:00,82.2,28.3,29.62,NE,37,4.9,4.9,14,0.00,,SKC,0.00,VWS V14.01,2013-08-18 18:00:00,
2013-08-18 11:05:00,82.6,28.6,29.62,NW,321,4.9,4.9,14,0.00,,SKC,0.00,VWS V14.01,2013-08-18 18:05:00,
2013-08-18 11:10:00,82.9,28.9,29.62,NW,321,4.0,5.4,14,0.00,,SKC,0.00,VWS V14.01,2013-08-18 18:10:00,
2013-08-18 11:15:00,83.5,29.3,29.62,NNW,339,5.4,5.4,14,0.00,,SKC,0.00,VWS V14.01,2013-08-18 18:15:00,
2013-08-18 11:20:00,83.7,29.5,29.62,NNW,336,0.0,0.0,14,0.00,,SKC,0.00,VWS V14.01,2013-08-18 18:20:00,
2013-08-18 11:25:00,84.0,29.8,29.62,North,0,3.1,3.1,14,0.00,,SKC,0.00,VWS V14.01,2013-08-18 18:25:00,
2013-08-18 11:30:00,84.2,28.1,29.62,NNW,337,0.0,0.0,13,0.00,,SKC,0.00,VWS V14.01,2013-08-18 18:30:00,
2013-08-18 11:35:00,84.7,28.5,29.62,NNW,332,0.0,0.0,13,0.00,,SKC,0.00,VWS V14.01,2013-08-18 18:35:00,
2013-08-18 11:40:00,85.1,28.8,29.62,NW,309,3.6,5.4,13,0.00,,SKC,0.00,VWS V14.01,2013-08-18 18:40:00,
2013-08-18 11:45:00,84.9,28.6,29.62,West,275,2.2,2.7,13,0.00,,SKC,0.00,VWS V14.01,2013-08-18 18:45:00,
2013-08-18 11:50:00,84.4,28.2,29.62,North,353,2.2,3.6,13,0.00,,SKC,0.00,VWS V14.01,2013-08-18 18:50:00,
2013-08-18 11:55:00,83.7,29.5,29.62,West,268,0.0,0.0,14,0.00,,SKC,0.00,VWS V14.01,2013-08-18 18:55:00,
2013-08-18 12:00:00,82.9,28.9,29.62,NW,314,2.7,3.6,14,0.00,,SKC,0.00,VWS V14.01,2013-08-18 19:00:00,
2013-08-18 12:05:00,83.3,29.2,29.62,NNW,335,0.0,0.0,14,0.00,,SKC,0.00,VWS V14.01,2013-08-18 19:05:00,
2013-08-18 12:10:00,84.4,28.2,29.62,NNW,336,0.0,0.0,13,0.00,,SKC,0.00,VWS V14.01,2013-08-18 19:10:00,
2013-08-18 12:15:00,85.8,29.4,29.62,NE,46,4.0,4.0,13,0.00,,SKC,0.00,VWS V14.01,2013-08-18 19:15:00,
2013-08-18 12:20:00,86.2,29.6,29.62,NNW,345,5.4,5.4,13,0.00,,SKC,0.00,VWS V14.01,2013-08-18 19:20:00,
2013-08-18 12:25:00,85.8,29.4,29.62,NNW,346,0.0,0.0,13,0.00,,SKC,0.00,VWS V14.01,2013-08-18 19:25:00,
2013-08-18 12:30:00,85.6,29.2,29.62,South,188,0.0,0.0,13,0.00,,SKC,0.00,VWS V14.01,2013-08-18 19:30:00,
2013-08-18 12:35:00,87.1,30.3,29.62,NNW,333,4.0,5.4,13,0.00,,SKC,0.00,VWS V14.01,2013-08-18 19:35:00,
2013-08-18 12:40:00,87.8,30.9,29.62,North,2,2.7,2.7,13,0.00,,SKC,0.00,VWS V14.01,2013-08-18 19:40:00,
2013-08-18 12:45:00,87.3,30.5,29.62,West,259,0.0,0.0,13,0.00,,SKC,0.00,VWS V14.01,2013-08-18 19:45:00,
2013-08-18 12:49:00,87.8,30.9,29.62,SSW,193,0.0,0.0,13,0.00,,SKC,0.00,VWS V14.01,2013-08-18 19:49:00,
2013-08-18 12:54:00,87.8,30.9,29.59,NNW,327,2.7,4.0,13,0.00,,SKC,0.00,VWS V14.01,2013-08-18 19:54:00,
2013-08-18 12:59:00,88.2,31.2,29.59,WNW,288,2.7,3.6,13,0.00,,SKC,0.00,VWS V14.01,2013-08-18 19:59:00,
2013-08-18 13:04:00,88.7,31.6,29.59,WNW,290,0.0,0.0,13,0.00,,SKC,0.00,VWS V14.01,2013-08-18 20:04:00,
2013-08-18 13:09:00,89.2,32.0,29.59,North,9,3.6,3.6,13,0.00,,SKC,0.00,VWS V14.01,2013-08-18 20:09:00,
2013-08-18 13:14:00,89.6,30.3,29.59,WSW,240,0.0,0.0,12,0.00,,SKC,0.00,VWS V14.01,2013-08-18 20:14:00,
2013-08-18 13:19:00,90.0,30.6,29.59,NW,313,2.2,3.6,12,0.00,,SKC,0.00,VWS V14.01,2013-08-18 20:19:00,
2013-08-18 13:24:00,90.3,30.9,29.59,SW,230,0.0,0.0,12,0.00,,SKC,0.00,VWS V14.01,2013-08-18 20:24:00,
2013-08-18 13:29:00,90.9,31.3,29.59,WNW,290,0.0,2.7,12,0.00,,SKC,0.00,VWS V14.01,2013-08-18 20:29:00,
2013-08-18 13:34:00,91.8,32.0,29.59,NW,312,3.1,3.6,12,0.00,,SKC,0.00,VWS V14.01,2013-08-18 20:34:00,
2013-08-18 13:39:00,92.3,32.4,29.59,SSW,206,0.0,0.0,12,0.00,,SKC,0.00,VWS V14.01,2013-08-18 20:39:00,
2013-08-18 13:44:00,93.2,31.0,29.59,NW,304,5.8,5.8,11,0.00,,SKC,0.00,VWS V14.01,2013-08-18 20:44:00,
2013-08-18 13:49:00,93.4,31.1,29.59,ESE,102,0.0,0.0,11,0.00,,SKC,0.00,VWS V14.01,2013-08-18 20:49:00,
2013-08-18 13:54:00,93.0,33.0,29.59,WNW,297,4.0,4.0,12,0.00,,SKC,0.00,VWS V14.01,2013-08-18 20:54:00,
2013-08-18 13:59:00,93.2,31.0,29.59,NW,325,4.0,5.4,11,0.00,,SKC,0.00,VWS V14.01,2013-08-18 20:59:00,
2013-08-18 14:04:00,93.6,31.2,29.59,NNW,329,0.0,0.0,11,0.00,,SKC,0.00,VWS V14.01,2013-08-18 21:04:00,
2013-08-18 14:09:00,93.7,31.4,29.59,NNW,337,6.3,6.3,11,0.00,,SKC,0.00,VWS V14.01,2013-08-18 21:09:00,
2013-08-18 14:14:00,93.9,31.5,29.59,WNW,282,3.6,3.6,11,0.00,,SKC,0.00,VWS V14.01,2013-08-18 21:14:00,
2013-08-18 14:19:00,94.3,31.8,29.59,WNW,293,0.0,3.6,11,0.00,,SKC,0.00,VWS V14.01,2013-08-18 21:19:00,
2013-08-18 14:24:00,94.3,31.8,29.59,West,280,3.6,3.6,11,0.00,,SKC,0.00,VWS V14.01,2013-08-18 21:24:00,
2013-08-18 14:29:00,93.9,31.5,29.59,WNW,297,6.7,6.7,11,0.00,,SKC,0.00,VWS V14.01,2013-08-18 21:29:00,
2013-08-18 14:34:00,94.3,31.8,29.59,NW,305,5.4,8.3,11,0.00,,SKC,0.00,VWS V14.01,2013-08-18 21:34:00,
2013-08-18 14:39:00,94.5,31.9,29.59,WNW,293,8.3,8.3,11,0.00,,SKC,0.00,VWS V14.01,2013-08-18 21:39:00,
2013-08-18 14:44:00,94.1,31.6,29.59,NNW,327,4.9,8.3,11,0.00,,SKC,0.00,VWS V14.01,2013-08-18 21:44:00,
2013-08-18 14:49:00,94.6,32.0,29.59,NW,311,4.9,5.8,11,0.00,,SKC,0.00,VWS V14.01,2013-08-18 21:49:00,
2013-08-18 14:54:00,94.8,32.2,29.59,ESE,109,0.0,8.7,11,0.00,,SKC,0.00,VWS V14.01,2013-08-18 21:54:00,
2013-08-18 14:59:00,94.3,31.8,29.59,North,0,5.8,6.7,11,0.00,,SKC,0.00,VWS V14.01,2013-08-18 21:59:00,
2013-08-18 15:04:00,93.9,31.5,29.59,West,271,5.4,9.6,11,0.00,,SKC,0.00,VWS V14.01,2013-08-18 22:04:00,
2013-08-18 15:09:00,94.1,31.6,29.59,WNW,284,3.1,7.6,11,0.00,,SKC,0.00,VWS V14.01,2013-08-18 22:09:00,
2013-08-18 15:14:00,93.7,31.4,29.59,North,350,6.3,6.3,11,0.00,,SKC,0.00,VWS V14.01,2013-08-18 22:14:00,
2013-08-18 15:19:00,92.8,32.8,29.59,West,268,3.6,5.8,12,0.00,,SKC,0.00,VWS V14.01,2013-08-18 22:19:00,
2013-08-18 15:24:00,93.2,31.0,29.56,WNW,299,7.6,8.7,11,0.00,,SKC,0.00,VWS V14.01,2013-08-18 22:24:00,
2013-08-18 15:29:00,94.1,31.6,29.56,West,277,7.6,10.5,11,0.00,,SKC,0.00,VWS V14.01,2013-08-18 22:29:00,
2013-08-18 15:34:00,94.5,31.9,29.56,NNW,346,8.7,8.7,11,0.00,,SKC,0.00,VWS V14.01,2013-08-18 22:34:00,
2013-08-18 15:39:00,94.3,31.8,29.56,West,276,4.9,5.8,11,0.00,,SKC,0.00,VWS V14.01,2013-08-18 22:39:00,
2013-08-18 15:44:00,93.2,31.0,29.56,WNW,286,0.0,0.0,11,0.00,,SKC,0.00,VWS V14.01,2013-08-18 22:44:00,
2013-08-18 15:49:00,91.9,32.1,29.56,NW,304,4.9,8.7,12,0.00,,SKC,0.00,VWS V14.01,2013-08-18 22:49:00,
2013-08-18 15:54:00,91.0,31.4,29.56,West,265,5.4,5.8,12,0.00,,SKC,0.00,VWS V14.01,2013-08-18 22:54:00,
2013-08-18 15:59:00,90.0,30.6,29.56,West,277,4.0,6.3,12,0.00,,SKC,0.00,VWS V14.01,2013-08-18 22:59:00,
2013-08-18 16:04:00,89.2,32.0,29.56,NW,304,3.6,3.6,13,0.00,,SKC,0.00,VWS V14.01,2013-08-18 23:04:00,
2013-08-18 16:09:00,88.5,31.5,29.56,West,280,5.8,5.8,13,0.00,,SKC,0.00,VWS V14.01,2013-08-18 23:09:00,
2013-08-18 16:14:00,88.2,31.2,29.56,West,279,4.0,4.0,13,0.00,,SKC,0.00,VWS V14.01,2013-08-18 23:14:00,
2013-08-18 16:19:00,88.0,31.0,29.56,WNW,289,4.0,7.6,13,0.00,,SKC,0.00,VWS V14.01,2013-08-18 23:19:00,
2013-08-18 16:24:00,88.2,31.2,29.56,West,266,6.3,6.3,13,0.00,,SKC,0.00,VWS V14.01,2013-08-18 23:24:00,
2013-08-18 16:29:00,87.8,30.9,29.56,WNW,299,4.0,8.1,13,0.00,,SKC,0.00,VWS V14.01,2013-08-18 23:29:00,
2013-08-18 16:34:00,87.1,30.3,29.56,West,277,6.3,9.6,13,0.00,,SKC,0.00,VWS V14.01,2013-08-18 23:34:00,
2013-08-18 16:39:00,87.1,30.3,29.68,WNW,285,3.6,3.6,13,0.00,,SKC,0.00,VWS V14.01,2013-08-18 23:39:00,
2013-08-18 16:44:00,86.7,30.0,29.68,WSW,246,0.0,0.0,13,0.00,,SKC,0.00,VWS V14.01,2013-08-18 23:44:00,
2013-08-18 16:49:00,86.2,29.6,29.68,SSW,204,4.0,4.0,13,0.00,,SKC,0.00,VWS V14.01,2013-08-18 23:49:00,
2013-08-18 16:59:00,84.7,28.5,29.56,South,183,3.6,6.3,13,0.00,,SKC,0.00,VWS V14.01,2013-08-18 23:59:00,
2013-08-18 17:04:00,84.2,28.1,29.56,SSE,165,3.6,6.3,13,0.00,,SKC,0.00,VWS V14.01,2013-08-19 00:04:00,
2013-08-18 17:09:00,83.8,29.6,29.59,SE,130,8.1,8.1,14,0.00,,SKC,0.00,VWS V14.01,2013-08-19 00:09:00,
2013-08-18 17:14:00,83.5,29.3,29.59,SSE,159,5.4,10.1,14,0.00,,SKC,0.00,VWS V14.01,2013-08-19 00:14:00,
2013-08-18 17:19:00,84.6,28.4,29.59,SSE,151,5.4,5.4,13,0.00,,SKC,0.00,VWS V14.01,2013-08-19 00:19:00,
2013-08-18 17:24:00,85.1,28.8,29.59,South,183,9.6,12.3,13,0.00,,SKC,0.00,VWS V14.01,2013-08-19 00:24:00,
2013-08-18 17:29:00,85.1,28.8,29.59,SE,133,8.1,12.8,13,0.00,,SKC,0.00,VWS V14.01,2013-08-19 00:29:00,
2013-08-18 17:34:00,85.1,28.8,29.59,SSE,166,8.3,15.4,13,0.00,,SKC,0.00,VWS V14.01,2013-08-19 00:34:00,
2013-08-18 17:39:00,84.6,28.4,29.59,SW,221,8.7,13.2,13,0.00,,SKC,0.00,VWS V14.01,2013-08-19 00:39:00,
2013-08-18 17:44:00,84.4,28.2,29.59,South,178,8.3,10.5,13,0.00,,SKC,0.00,VWS V14.01,2013-08-19 00:44:00,
2013-08-18 17:49:00,84.0,29.8,29.59,SE,144,13.2,14.1,14,0.00,,SKC,0.00,VWS V14.01,2013-08-19 00:49:00,
2013-08-18 17:54:00,83.7,29.5,29.59,SE,143,6.3,6.3,14,0.00,,SKC,0.00,VWS V14.01,2013-08-19 00:54:00,
2013-08-18 17:59:00,83.7,29.5,29.59,SSE,149,10.1,10.1,14,0.00,,SKC,0.00,VWS V14.01,2013-08-19 00:59:00,
2013-08-18 18:04:00,83.8,29.6,29.59,SW,214,8.3,8.3,14,0.00,,SKC,0.00,VWS V14.01,2013-08-19 01:04:00,
2013-08-18 18:09:00,83.3,29.2,29.59,SSW,202,0.0,5.4,14,0.00,,SKC,0.00,VWS V14.01,2013-08-19 01:09:00,
2013-08-18 18:14:00,82.4,28.5,29.59,SSW,201,3.1,3.6,14,0.00,,SKC,0.00,VWS V14.01,2013-08-19 01:14:00,
2013-08-18 18:19:00,81.9,28.0,29.59,SSW,209,5.4,5.4,14,0.00,,SKC,0.00,VWS V14.01,2013-08-19 01:19:00,
2013-08-18 18:24:00,81.7,27.9,29.59,SSW,198,3.6,5.4,14,0.00,,SKC,0.00,VWS V14.01,2013-08-19 01:24:00,
2013-08-18 18:29:00,82.2,28.3,29.59,SE,137,6.3,8.1,14,0.00,,SKC,0.00,VWS V14.01,2013-08-19 01:29:00,
2013-08-18 18:34:00,82.8,28.8,29.59,South,190,3.6,3.6,14,0.00,,SKC,0.00,VWS V14.01,2013-08-19 01:34:00,
2013-08-18 18:39:00,82.6,28.6,29.59,SSE,156,0.0,0.0,14,0.00,,SKC,0.00,VWS V14.01,2013-08-19 01:39:00,
2013-08-18 18:44:00,82.6,28.6,29.59,SSE,156,0.0,0.0,14,0.00,,SKC,0.00,VWS V14.01,2013-08-19 01:44:00,
2013-08-18 18:49:00,82.4,28.5,29.59,ESE,106,6.3,6.3,14,0.00,,SKC,0.00,VWS V14.01,2013-08-19 01:49:00,
2013-08-18 18:54:00,82.2,28.3,29.59,SE,138,4.0,7.6,14,0.00,,SKC,0.00,VWS V14.01,2013-08-19 01:54:00,
2013-08-18 18:59:00,82.2,28.3,29.59,SE,141,4.0,6.3,14,0.00,,SKC,0.00,VWS V14.01,2013-08-19 01:59:00,
2013-08-18 19:04:00,82.2,28.3,29.59,ESE,123,5.4,7.6,14,0.00,,SKC,0.00,VWS V14.01,2013-08-19 02:04:00,
2013-08-18 19:09:00,82.0,28.2,29.59,SE,145,8.3,8.3,14,0.00,,SKC,0.00,VWS V14.01,2013-08-19 02:09:00,
2013-08-18 19:14:00,81.7,27.9,29.59,SSW,192,6.3,7.6,14,0.00,,SKC,0.00,VWS V14.01,2013-08-19 02:14:00,
2013-08-18 19:19:00,81.7,27.9,29.59,SSE,151,3.1,4.9,14,0.00,,SKC,0.00,VWS V14.01,2013-08-19 02:19:00,
2013-08-18 19:24:00,81.5,27.8,29.59,SE,133,4.9,4.9,14,0.00,,SKC,0.00,VWS V14.01,2013-08-19 02:24:00,
2013-08-18 19:29:00,81.0,27.3,29.59,SE,141,3.6,4.0,14,0.00,,SKC,0.00,VWS V14.01,2013-08-19 02:29:00,
2013-08-18 19:34:00,80.8,27.2,29.59,SE,135,4.9,6.3,14,0.00,,SKC,0.00,VWS V14.01,2013-08-19 02:34:00,
2013-08-18 19:39:00,81.1,27.5,29.59,SE,143,8.3,10.5,14,0.00,,SKC,0.00,VWS V14.01,2013-08-19 02:39:00,
2013-08-18 19:44:00,81.1,27.5,29.59,SSE,149,5.4,7.6,14,0.00,,SKC,0.00,VWS V14.01,2013-08-19 02:44:00,
2013-08-18 19:49:00,81.5,27.8,29.59,SE,134,6.3,8.3,14,0.00,,SKC,0.00,VWS V14.01,2013-08-19 02:49:00,
2013-08-18 19:54:00,81.7,27.9,29.59,SSE,150,7.6,8.7,14,0.00,,SKC,0.00,VWS V14.01,2013-08-19 02:54:00,
2013-08-18 19:59:00,81.9,28.0,29.59,SE,139,4.9,6.3,14,0.00,,SKC,0.00,VWS V14.01,2013-08-19 02:59:00,
2013-08-18 20:04:00,81.9,28.0,29.59,SE,142,3.6,5.4,14,0.00,,SKC,0.00,VWS V14.01,2013-08-19 03:04:00,
2013-08-18 20:09:00,81.5,27.8,29.71,SE,143,7.6,7.6,14,0.00,,SKC,0.00,VWS V14.01,2013-08-19 03:09:00,
2013-08-18 20:14:00,81.1,27.5,29.71,SSE,153,5.8,7.6,14,0.00,,SKC,0.00,VWS V14.01,2013-08-19 03:14:00,
2013-08-18 20:19:00,80.8,27.2,29.71,ESE,120,6.7,6.7,14,0.00,,SKC,0.00,VWS V14.01,2013-08-19 03:19:00,
2013-08-18 20:24:00,80.6,27.0,29.59,SE,126,4.9,4.9,14,0.00,,SKC,0.00,VWS V14.01,2013-08-19 03:24:00,
2013-08-18 20:29:00,80.4,28.6,29.59,SE,139,2.7,3.1,15,0.00,,SKC,0.00,VWS V14.01,2013-08-19 03:29:00,
2013-08-18 20:34:00,80.2,28.4,29.59,SE,136,0.0,0.0,15,0.00,,SKC,0.00,VWS V14.01,2013-08-19 03:34:00,
2013-08-18 20:39:00,79.5,27.9,29.62,SE,125,2.7,3.6,15,0.00,,SKC,0.00,VWS V14.01,2013-08-19 03:39:00,
2013-08-18 20:44:00,80.1,28.3,29.62,SE,131,5.4,5.4,15,0.00,,SKC,0.00,VWS V14.01,2013-08-19 03:44:00,
2013-08-18 20:49:00,80.8,27.2,29.62,ESE,120,3.1,5.8,14,0.00,,SKC,0.00,VWS V14.01,2013-08-19 03:49:00,
2013-08-18 20:54:00,78.6,27.1,29.62,SSE,154,3.6,5.8,15,0.00,,SKC,0.00,VWS V14.01,2013-08-19 03:54:00,
2013-08-18 20:59:00,76.5,25.4,29.62,SE,140,6.3,8.1,15,0.00,,SKC,0.00,VWS V14.01,2013-08-19 03:59:00,
2013-08-18 21:01:00,76.3,25.3,29.62,SSE,155,4.0,4.9,15,0.00,,SKC,0.00,VWS V14.01,2013-08-19 04:01:00,
2013-08-18 21:06:00,75.7,24.9,29.62,South,176,5.4,7.6,15,0.00,,SKC,0.00,VWS V14.01,2013-08-19 04:06:00,
2013-08-18 21:11:00,77.2,26.0,29.62,SE,139,5.4,7.2,15,0.00,,SKC,0.00,VWS V14.01,2013-08-19 04:11:00,
2013-08-18 21:16:00,77.4,26.1,29.62,SE,142,8.3,10.5,15,0.00,,SKC,0.00,VWS V14.01,2013-08-19 04:16:00,
2013-08-18 21:21:00,79.0,27.4,29.62,SE,139,15.4,15.4,15,0.00,,SKC,0.00,VWS V14.01,2013-08-19 04:21:00,
2013-08-18 21:26:00,79.9,28.1,29.62,ESE,119,5.8,5.8,15,0.00,,SKC,0.00,VWS V14.01,2013-08-19 04:26:00,
2013-08-18 21:31:00,80.1,28.3,29.62,East,85,8.3,9.6,15,0.00,,SKC,0.00,VWS V14.01,2013-08-19 04:31:00,
2013-08-18 21:36:00,81.0,27.3,29.62,SSE,155,8.3,12.3,14,0.00,,SKC,0.00,VWS V14.01,2013-08-19 04:36:00,
2013-08-18 21:41:00,81.7,27.9,29.62,ESE,119,12.8,12.8,14,0.00,,SKC,0.00,VWS V14.01,2013-08-19 04:41:00,
2013-08-18 21:46:00,80.8,27.2,29.62,SE,125,13.2,13.2,14,0.00,,SKC,0.00,VWS V14.01,2013-08-19 04:46:00,
2013-08-18 21:51:00,81.0,27.3,29.62,SE,125,5.4,8.3,14,0.00,,SKC,0.00,VWS V14.01,2013-08-19 04:51:00,
2013-08-18 21:56:00,81.9,28.0,29.62,NW,312,8.3,8.3,14,0.00,,SKC,0.00,VWS V14.01,2013-08-19 04:56:00,
2013-08-18 22:01:00,82.9,28.9,29.62,WNW,283,2.2,2.2,14,0.00,,SKC,0.00,VWS V14.01,2013-08-19 05:01:00,
2013-08-18 22:55:00,80.1,28.3,29.74,ESE,122,6.3,7.6,15,0.00,,SKC,0.00,VWS V14.01,2013-08-19 05:55:00,
2013-08-18 23:00:00,79.9,28.1,29.74,SE,127,11.4,15.0,15,0.00,,SKC,0.00,VWS V14.01,2013-08-19 06:00:00,
2013-08-18 23:05:00,79.7,28.0,29.74,ESE,120,11.4,15.0,15,0.00,,SKC,0.00,VWS V14.01,2013-08-19 06:05:00,
2013-08-18 23:10:00,79.3,27.7,29.62,SE,135,13.2,19.7,15,0.00,,SKC,0.00,VWS V14.01,2013-08-19 06:10:00,
2013-08-18 23:15:00,79.2,27.6,29.62,SE,144,11.0,15.0,15,0.00,,SKC,0.00,VWS V14.01,2013-08-19 06:15:00,
2013-08-18 23:20:00,78.8,27.3,29.62,ESE,118,10.1,10.1,15,0.00,,SKC,0.00,VWS V14.01,2013-08-19 06:20:00,
2013-08-18 23:25:00,78.4,27.0,29.62,ESE,120,16.8,16.8,15,0.00,,SKC,0.00,VWS V14.01,2013-08-19 06:25:00,
2013-08-18 23:30:00,78.1,26.7,29.62,SE,139,9.2,9.2,15,0.00,,SKC,0.00,VWS V14.01,2013-08-19 06:30:00,
2013-08-18 23:35:00,78.1,26.7,29.62,SSE,150,11.0,11.0,15,0.00,,SKC,0.00,VWS V14.01,2013-08-19 06:35:00,
2013-08-18 23:40:00,78.1,26.7,29.62,SE,140,11.0,11.0,15,0.00,,SKC,0.00,VWS V14.01,2013-08-19 06:40:00,